Location: Chervonnoye
(48.6000°N, 34.4000°E)
Time: 16:22:20
(UTC+00:00)

MOS 1 Rocket - Pass Details

Date: 23 November 2020
Orbit: 613 x 831 km, 97.4° (Epoch: 27 January)

Event Time Altitude Azimuth Distance (km) Brightness Sun altitude
Exits shadow 15:34:53 25° 65° (ENE) 1,620 4.6 -16.2°
Maximum altitude 15:36:22 29° 92° (E) 1,499 4.4 -16.4°
Drops below altitude 10° 15:41:01 10° 151° (SSE) 2,433 5.9 -17.2°
Sets 15:43:41 0° 163° (SSE) 3,354 6.8 -17.6°
